AirNav   Advertisement
 
 1620 users online  

VT32 Bobby Heliport
Brookline, Vermont, USA

GOING TO BROOKLINE?


FAA INFORMATION EFFECTIVE 14 SEPTEMBER 2017

Location

FAA Identifier: VT32
Lat/Long: 42-59-20.2890N / 072-37-41.3300W
42-59.338150N / 072-37.688833W
42.9889692 / -72.6281472
(estimated)
Elevation: 420 ft. / 128 m (estimated)
Variation: 15W (1985)
From city: 3 miles SE of BROOKLINE, VT
Time zone: UTC -4 (UTC -5 during Standard Time)
Zip code: 05345

Heliport Operations

Heliport use: Private use, PERSONAL USE.
Activation date: 07/1990
Control tower: no
ARTCC: BOSTON CENTER
FSS: BURLINGTON FLIGHT SERVICE STATION
Attendance: UNATNDD
Segmented circle: no

Heliport Communications

WX AWOS-3PT at EEN (17 nm E): 119.025 (603-358-6424)

Nearby radio navigation aids

VOR radial/distance  VOR name  Freq  Var
EENr322/18.8KEENE VORTAC109.4014W
CAMr105/31.4CAMBRIDGE VOR/DME115.0014W
RUTr171/35.2RUTLAND VOR/DME111.0015W
GDMr331/36.6GARDNER VOR/DME110.6014W

 
NDB name  Hdg/Dist  Freq  Var  ID
CLAREMONT222/25.423316WCNH -.-. -. ....

Heliport Services

Runway Information

Helipad H1

Dimensions: 75 x 50 ft. / 23 x 15 m
Surface: turf
Traffic pattern: leftleft

Heliport Ownership and Management from official FAA records

Ownership: Privately-owned
Owner: HERBERT D HOWE
125 WHITE OAK RUN
DARTMOUTH, MA 02747
Phone 508-636-4376
Manager: HERBERT D HOWE
125 WHITE OAK RUN
DARTMOUTH, MA 02747
Phone 508-636-4376

Heliport Operational Statistics

Aircraft based on the field: 1
Helicopters: 1
    

Instrument Procedures

There are no published instrument procedures at VT32.

Some nearby airports with instrument procedures:

4V8 - Deerfield Valley Regional Airport (11 nm W)
KEEN - Dillant-Hopkins Airport (17 nm E)
KVSF - Hartness State Airport (Springfield) (22 nm N)
0B5 - Turners Falls Airport (24 nm S)
KCNH - Claremont Municipal Airport (26 nm NE)
 
Loc | Ops | Rwys | IFR | FBO | Links
Com | Nav | Svcs | Stats | Notes


 
Area around VT32 (Bobby Heliport)
 
Road maps at: MapQuest Bing Google
 
Aerial photo
No photo
 
Sectional chart

 
Airport distance calculator
Flying to Bobby Heliport? Find the distance to fly.

From to VT32

Sunrise and sunset
Times for 26-Sep-2017
 Local
(UTC-4)
 Zulu
(UTC)
Morning civil twilight06:1510:15
Sunrise06:4310:43
Sunset18:4122:41
Evening civil twilight19:0923:09

Current date and time
Zulu (UTC)  26-Sep-2017 19:37:02
Local (UTC-4)  26-Sep-2017 15:37:02
 
METAR
KEEN 
17nm E 
261856Z AUTO 28005KT 10SM CLR 33/20 A2999 RMK AO2 SLP166 T03280200
KVSF 
22nm N 
261854Z AUTO 09003KT 10SM CLR 31/19 A2999 RMK AO2 SLP152 T03110189
KDDH 
28nm W 
261854Z AUTO 00000KT 10SM CLR 30/19 A3000 RMK AO2 SLP152 T03000194
KAQW 
29nm SW 
261852Z AUTO 00000KT 10SM CLR 31/18 A2998 RMK AO2 SLP151 T03060178
KORE 
30nm SE 
261852Z AUTO VRB04KT 10SM CLR 31/18 A3000 RMK AO2 SLP156 T03060183 TSNO
KAFN 
30nm E 
261852Z AUTO VRB03KT 10SM SCT045 BKN055 30/19 A3003 RMK AO2 SLP166 T03000194
TAF
KRUT 
35nm NW 
261720Z 2618/2718 VRB03KT P6SM SCT250 FM270000 13007KT P6SM FEW250 FM271200 VRB03KT P6SM FEW250
KLEB 
41nm N 
261730Z 2618/2718 00000KT P6SM SCT035 FM270000 00000KT P6SM BKN250 FM270400 00000KT 1 1/2SM BR SCT003 FM270700 00000KT 1/4SM FG VV001 FM271500 VRB03KT P6SM SCT250
NOTAMs
Click for the latest NOTAMs
NOTAMs are issued by the DoD/FAA and will open in a separate window not controlled by AirNav.

 

 
 

Would you like to see your business listed on this page?

 If your business provides an interesting product or service to pilots, flight crews, aircraft, or users of the Bobby Heliport, you should consider listing it here.  To start the listing process, click on the button below
 
Add a business
 

Other Pages about Bobby Heliport

Update a link
 
Copyright © AirNav, LLC. All rights reserved. Privacy Policy  Contact